Flag for Madagascar Weather past 2 weeks in Antananarivo, Madagascar

Now
57 °F

Broken clouds.


Feels Like: 54 °F
Forecast: 52 / 70 °F
Wind: 15 mph from Southeast

Location: Antananarivo / Ivato

Current Time: Aug 28, 2015 at 9:23:24 AM

Latest Report: Aug 28, 2015 at 9:00 AM


Visibility: N/A

Pressure: 30.36 "Hg (26.05 "Hg at 1287m altitude)

Humidity: 88%

Dew point: 54 °F

Location of AntananarivoLocation

Historic Weather in Antananarivo — Graph

°F

Antananarivo temperature yesterday

Maximum temperature yesterday: 72 °F (at 11:30 AM)
Minimum temperature yesterday: 50 °F (at 5:00 AM)
Average temperature yesterday: 61 °F

Past Weeks' High & Low Weather Summary

 TemperatureHumidityPressure
High79 °F (Aug 23, 2:00 PM)100% (Aug 13, 8:00 AM)30.66 "Hg (Aug 13, 8:00 AM)
Low48 °F (Aug 21, 6:00 AM)44% (Aug 19, 1:30 PM)30.12 "Hg (Aug 18, 2:00 PM)
Average62 °F86%30.29 "Hg
* Reported Aug 13 8:00 AM — Aug 28 8:30 AM, Antananarivo, Weather by CustomWeather, © 2015

Note: Actual official high and low records may vary slightly from our data, if they occured in-between our weather recording intervals... More about our weather records

Advertising

Antananarivo weather history for previous 24 hours

 ConditionsComfort  
Time TempWeatherWind HumidityBarometerVisibility
8:30 AM
Fri, Aug 28
57 °FBroken clouds.10 mph88%30.36 "HgN/A
8:00 AM57 °FBroken clouds.12 mph88%30.36 "HgN/A
7:30 AM55 °FScattered clouds.8 mph100%30.36 "HgN/A
7:00 AM52 °FDrizzle. Broken clouds.9 mph100%30.36 "HgN/A
6:00 AM52 °FPartly cloudy.7 mph100%30.33 "HgN/A
5:30 AM52 °FPassing clouds.9 mph100%30.30 "HgN/A
5:00 AM54 °FPassing clouds.7 mph100%30.30 "HgN/A
4:30 AM54 °FPassing clouds.6 mph100%30.30 "HgN/A
4:00 AM54 °FPassing clouds.6 mph100%30.30 "HgN/A
3:30 AM54 °FPassing clouds.7 mph100%30.30 "HgN/A
3:00 AM54 °FPassing clouds.7 mph100%30.30 "HgN/A
2:00 AM55 °FPassing clouds.7 mph100%30.33 "HgN/A
1:00 AM55 °FPassing clouds.9 mph100%30.33 "HgN/A
12:00 AM57 °FPassing clouds.12 mph100%30.33 "HgN/A
11:00 PM
Thu, Aug 27
57 °FPassing clouds.12 mph100%30.36 "HgN/A
10:00 PM59 °FPassing clouds.12 mph100%30.36 "HgN/A
9:30 PM59 °FPassing clouds.9 mph100%30.36 "HgN/A
9:00 PM59 °FPassing clouds.12 mph100%30.36 "HgN/A
8:30 PM59 °FPassing clouds.8 mph100%30.33 "HgN/A
8:00 PM59 °FPassing clouds.9 mph100%30.33 "HgN/A
7:30 PM59 °FPassing clouds.13 mph100%30.33 "HgN/A
7:00 PM59 °FPassing clouds.10 mph100%30.33 "HgN/A
6:30 PM61 °FPassing clouds.8 mph88%30.30 "HgN/A
6:00 PM63 °FPassing clouds.12 mph83%30.30 "HgN/A
5:30 PM63 °FBroken clouds.10 mph83%30.30 "HgN/A
5:00 PM68 °FScattered clouds.12 mph78%30.30 "HgN/A
4:30 PM68 °FScattered clouds.12 mph73%30.27 "HgN/A
4:00 PM68 °FScattered clouds.13 mph73%30.27 "HgN/A
3:30 PM70 °FScattered clouds.15 mph69%30.27 "HgN/A
3:00 PM70 °FScattered clouds.13 mph73%30.27 "HgN/A
2:30 PM72 °FPartly sunny.14 mph65%30.27 "HgN/A
2:00 PM70 °FPartly sunny.10 mph69%30.27 "HgN/A
1:30 PM70 °FPartly sunny.12 mph69%30.30 "HgN/A
1:00 PM68 °FPartly sunny.9 mph69%30.30 "HgN/A
12:30 PM70 °FPartly sunny.10 mph69%30.30 "HgN/A
12:00 PM70 °FPartly sunny.13 mph73%30.33 "HgN/A
11:30 AM72 °FPartly sunny.10 mph69%30.33 "HgN/A
11:00 AM70 °FPartly sunny.7 mph69%30.33 "HgN/A
10:30 AM64 °FPartly sunny.9 mph78%30.36 "HgN/A
10:00 AM66 °FPartly sunny.10 mph78%30.36 "HgN/A
9:30 AM66 °FPassing clouds.7 mph78%30.36 "HgN/A
9:00 AM61 °FPassing clouds.12 mph83%30.36 "HgN/A
Weather by CustomWeather, © 2015

See weather overviewHow to use our weather pages